TimePST,TemperatureF,Dew PointF,Humidity,Sea Level PressureIn,VisibilityMPH,Wind Direction,Wind SpeedMPH,Gust SpeedMPH,PrecipitationIn,Events,Conditions,WindDirDegrees,DateUTC
12:56 AM,-11.0,-16.1,78,30.69,10.0,Calm,Calm,-,N/A,,Clear,0,2013-01-02 08:56:00
1:56 AM,-13.0,-17.0,82,30.69,10.0,South,3.5,-,N/A,,Clear,170,2013-01-02 09:56:00
2:56 AM,-13.0,-17.0,82,30.68,10.0,SSW,3.5,-,N/A,,Clear,210,2013-01-02 10:56:00
3:56 AM,-11.0,-16.1,78,30.68,10.0,Calm,Calm,-,N/A,,Clear,0,2013-01-02 11:56:00
4:56 AM,-13.0,-17.0,82,30.70,10.0,SE,4.6,-,N/A,,Clear,140,2013-01-02 12:56:00
5:46 AM,-13.0,-16.6,84,30.41,1.8,Calm,Calm,-,N/A,,Clear,0,2013-01-02 13:46:00
5:56 AM,-13.0,-18.9,75,30.71,3.0,Calm,Calm,-,N/A,,Haze,0,2013-01-02 13:56:00
6:56 AM,-11.9,-16.1,82,30.74,10.0,Calm,Calm,-,N/A,,Clear,0,2013-01-02 14:56:00
7:56 AM,-9.9,-15.0,78,30.75,10.0,Calm,Calm,-,N/A,,Clear,0,2013-01-02 15:56:00
8:56 AM,-2.0,-5.1,87,30.73,9.0,Calm,Calm,-,N/A,,Clear,0,2013-01-02 16:56:00
9:56 AM,3.0,-0.9,84,30.73,10.0,East,3.5,-,N/A,,Clear,80,2013-01-02 17:56:00
10:56 AM,10.0,3.0,73,30.69,10.0,ENE,6.9,-,N/A,,Clear,70,2013-01-02 18:56:00
11:56 AM,12.9,3.9,67,30.66,10.0,Calm,Calm,-,N/A,,Clear,0,2013-01-02 19:56:00
12:56 PM,15.1,6.1,68,30.61,10.0,NE,8.1,-,N/A,,Clear,40,2013-01-02 20:56:00
1:56 PM,16.0,7.0,68,30.61,10.0,NNE,11.5,-,N/A,,Clear,30,2013-01-02 21:56:00
2:56 PM,16.0,7.0,68,30.62,10.0,NE,10.4,-,N/A,,Clear,40,2013-01-02 22:56:00
3:56 PM,15.1,6.1,68,30.62,10.0,NNE,8.1,-,N/A,,Clear,30,2013-01-02 23:56:00
4:56 PM,10.0,3.9,76,30.65,10.0,NE,6.9,-,N/A,,Clear,50,2013-01-03 00:56:00
5:56 PM,5.0,1.0,84,30.66,10.0,East,5.8,-,N/A,,Clear,90,2013-01-03 01:56:00
6:56 PM,-0.9,-4.0,87,30.69,10.0,Variable,3.5,-,N/A,,Clear,0,2013-01-03 02:56:00
7:56 PM,1.0,-2.9,83,30.66,10.0,ENE,4.6,-,N/A,,Clear,70,2013-01-03 03:56:00
8:56 PM,-5.1,-8.0,87,30.65,10.0,Calm,Calm,-,N/A,,Clear,0,2013-01-03 04:56:00
9:56 PM,-8.0,-11.9,83,30.66,10.0,ESE,4.6,-,N/A,,Clear,110,2013-01-03 05:56:00
10:56 PM,-9.9,-14.1,82,30.63,10.0,SE,5.8,-,N/A,,Clear,140,2013-01-03 06:56:00
11:56 PM,-9.0,-13.0,83,30.59,10.0,SSE,9.2,-,N/A,,Clear,150,2013-01-03 07:56:00